Terug naar catalogus

STARLINK-4583

ActiefCommunicatieVLEO
NORAD 53568·PAYLOAD·🇺🇸 United States

Gelanceerd Aug 19, 2022 vanaf Cape Canaveral Space Force Station

Loading…

Volgende Passages (komende 24 uur)

TLE

VersSource: CelesTrak SupGP

Epoch: Sep 15, 2026, 02:24 UTC

1 53568C 22101AT  26258.10048611 -.00008419  00000+0 -24878-3 0  2580
2 53568  53.1563 269.1507 0001318  97.3115 131.4319 15.34390565    15

Volg STARLINK-4583 in realtime met AllMySat

Download on the App Store